Regional Weather Roundup
Issued by NWS State College, PA

Home | Current Version | Previous Version | Text Only | Print | Product List | Glossary On
Versions: 1 2 3 4 5 6 7 8 9 10 11 12 13 14 15 16 17 18 19 20 21 22 23 24 25 26 27 28 29 30 31 32 33 34 35 36 37 38 39 40 41 42 43 44 45 46 47 48 49 50
000
ASUS41 KCTP 300110
RWRCTP

REGIONAL WEATHER ROUNDUP
NATIONAL WEATHER SERVICE STATE COLLEGE PA
900 PM EDT TUE JUL 29 2014

Note: "fair" indicates few or no clouds below 12,000 feet with no
significant weather and/or obstructions to visibility.

* = STATION THAT DOES NOT REPORT PRECIPITATION /E.G. RAIN...SNOW...ETC/
    THUNDER OR FOG.

PAZ002>004-007>009-013>016-020>023-029>032-300200-
WESTERN PENNSYLVANIA

CITY           SKY/WX    TMP DP  RH WIND       PRES   REMARKS
ERIE           MOCLDY    63  52  67 S5        29.99S
MEADVILLE      PTCLDY    59  51  75 CALM      30.02S
FRANKLIN*      PTCLDY    57  50  77 SW3       30.04R
NEW CASTLE       N/A     57  54  90 CALM      30.03S
BEAVER COUNTY  CLEAR     61  52  72 CALM      30.03S
BUTLER*        CLEAR     57  52  82 CALM      30.04F
PITTSBURGH INT PTCLDY    62  52  69 SW5       30.03S
PITTSBURGH     CLEAR     63  48  58 W5        30.03R
INDIANA*       CLOUDY    61  54  77 CALM      30.07S
LATROBE        MOCLDY    61  57  88 SW7       30.05R
WASHINGTON CO* CLEAR     55  52  88 CALM      30.04S
$$

PAZ004>006-010>012-017>019-024>028-033>037-041-042-045-046-049>053-300200-
CENTRAL PENNSYLVANIA

CITY           SKY/WX    TMP DP  RH WIND       PRES   REMARKS
BRADFORD       CLEAR     54  50  86 CALM      30.02S
DUBOIS         PTCLDY    55  52  89 SW3       30.02S
CLEARFIELD     CLOUDY    60  52  74 SW5       30.02S
JOHNSTOWN      CLOUDY    56  49  77 W7        30.05R
ALTOONA        CLOUDY    59  53  80 W5        30.04R
STATE COLLEGE  MOCLDY    59  55  88 CALM      30.01S
WILLIAMSPORT   CLOUDY    64  51  62 CALM      29.98R
SELINSGROVE    PTCLDY    59  57  93 CALM      30.00R
FT INDIANTOWN  CLOUDY    63  57  81 CALM      29.99S
CAPITAL CITY   PTCLDY    61  54  77 SW5       29.99S
HARRISBURG     MOCLDY    65  53  65 NW6       29.98S
YORK           PTCLDY    60  56  86 CALM      29.99S
$$

PAZ038>040-043-044-047-048-054-055-060>062-067>071-300200-
EASTERN PENNSYLVANIA

CITY           SKY/WX    TMP DP  RH WIND       PRES   REMARKS
SCRANTON       CLOUDY    64  51  62 CALM      29.99R
MOUNT POCONO   CLOUDY    59  50  72 NW6       30.00S
ALLENTOWN      PTCLDY    64  52  64 CALM      29.97S
QUAKERTOWN*    MOCLDY    63  55  77 CALM      29.99R
READING        PTCLDY    67  52  58 W3        29.97S
LANCASTER      CLOUDY    65  54  67 NW6       29.99R
COATESVILLE    MOCLDY    64  64 100 NW5       29.99S
POTTSTOWN      MOCLDY    65  52  62 CALM      29.99R
BLUE BELL      MOCLDY    66  61  82 CALM      29.96S
DOYLESTOWN     CLOUDY    66  53  63 CALM      29.97R
WILLOW GROVE   NOT AVBL
NORTH PHILA    CLOUDY    72  52  49 NW5       29.97S
PHILADELPHIA   CLOUDY    73  53  49 NW8       29.96S
$$


USA.gov is the U.S. government's official web portal to all federal, state and local government web resources and services.